Location: Palo Alto
(37.4420°N, 122.1420°W)
Time: 09:04:21
(UTC-07:00)

ISS - All Passes

Search period start: 29 August 2014 00:00
Search period end: 08 September 2014 00:00
Orbit: 414 x 419 km, 51.6° (Epoch: 29 August)

Date Brightness Start Highest point End Pass type
(mag) Time Alt. Az. Time Alt. Az. Time Alt. Az.
29 Aug - 11:30:20 10° SW 11:33:39 73° NW 11:36:59 10° NE daylight
29 Aug - 13:09:08 10° NW 13:10:53 14° NNW 13:12:38 10° N daylight
29 Aug - 16:25:27 10° N 16:26:55 12° NNE 16:28:24 10° NE daylight
29 Aug - 18:00:56 10° NW 18:04:14 59° NE 18:07:31 10° ESE daylight
29 Aug - 19:39:09 10° WSW 19:40:35 12° SW 19:42:02 10° SSW daylight
30 Aug - 10:41:56 10° SW 10:45:11 59° SE 10:48:28 10° ENE daylight
30 Aug - 12:19:45 10° WNW 12:22:10 18° NNW 12:24:35 10° NNE daylight
30 Aug - 17:12:36 10° NW 17:15:41 34° NNE 17:18:45 10° E daylight
30 Aug - 18:49:36 10° WNW 18:52:16 22° SW 18:54:56 10° S daylight
31 Aug - 09:53:48 10° SSW 09:56:46 30° SE 09:59:44 10° ENE daylight
31 Aug - 11:30:36 10° W 11:33:29 27° NNW 11:36:23 10° NNE daylight
31 Aug - 16:24:20 10° NNW 16:27:01 22° NNE 16:29:43 10° E daylight
31 Aug - 18:00:42 10° WNW 18:03:52 41° SW 18:07:01 10° SSE daylight
01 Sep - 09:06:10 10° S 09:08:22 17° SE 09:10:35 10° E daylight
01 Sep - 10:41:39 10° WSW 10:44:50 43° NW 10:48:03 10° NE daylight
01 Sep - 12:21:23 10° NNW 12:22:16 11° NNW 12:23:09 10° N daylight
01 Sep - 15:36:08 10° NNW 15:38:16 16° NNE 15:40:24 10° ENE daylight
01 Sep - 17:12:02 10° NW 17:15:22 82° SW 17:18:41 10° SE daylight
02 Sep - 09:52:55 10° SW 09:56:14 80° NW 09:59:34 10° NE daylight
02 Sep - 11:31:33 10° WNW 11:33:25 14° NNW 11:35:17 10° NNE daylight
02 Sep - 14:48:07 10° N 14:49:26 12° NNE 14:50:45 10° NE daylight
02 Sep - 16:23:30 10° NW 16:26:46 53° NE 16:30:02 10° ESE daylight
02 Sep - 18:01:26 10° W 18:03:10 14° SW 18:04:53 10° SSW daylight
03 Sep - 09:04:25 10° SSW 09:07:39 53° SE 09:10:55 10° ENE daylight
03 Sep - 10:42:05 10° WNW 10:44:35 19° NNW 10:47:06 10° NNE daylight
03 Sep - 15:35:03 10° NNW 15:38:05 31° NNE 15:41:06 10° E daylight
03 Sep - 17:11:56 10° WNW 17:14:43 24° SW 17:17:28 10° S daylight
04 Sep - 08:16:15 10° SSW 08:19:07 27° SE 08:22:00 10° ENE daylight
04 Sep - 09:52:51 10° W 09:55:47 29° NNW 09:58:45 10° NNE daylight
04 Sep - 14:46:41 10° NNW 14:49:18 21° NNE 14:51:54 10° E daylight
04 Sep - 16:22:58 10° WNW 16:26:10 46° SW 16:29:22 10° SSE daylight
05 Sep - 07:28:37 10° SSE 07:30:37 15° SE 07:32:37 10° E daylight
05 Sep - 09:03:49 10° WSW 09:07:02 48° NW 09:10:16 10° NE daylight
05 Sep - 10:43:19 10° NW 10:44:25 11° NNW 10:45:31 10° N daylight
05 Sep - 13:58:24 10° NNW 14:00:25 15° NNE 14:02:25 10° ENE daylight
05 Sep - 15:34:12 10° NW 15:37:33 90° NE 15:40:52 10° SE daylight
06 Sep - 08:15:00 10° SW 08:18:19 89° NW 08:21:39 10° NE daylight
06 Sep - 09:53:27 10° WNW 09:55:27 15° NNW 09:57:27 10° NNE daylight
06 Sep - 13:10:19 10° N 13:11:26 11° NNE 13:12:34 10° NE daylight
06 Sep - 14:45:34 10° NW 14:48:49 48° NE 14:52:03 10° ESE daylight
06 Sep - 16:23:15 10° W 16:25:14 15° SW 16:27:13 10° SSW daylight
07 Sep - 07:26:26 10° SSW 07:29:38 47° SE 07:32:51 10° ENE daylight
07 Sep - 09:03:55 10° W 09:06:30 21° NNW 09:09:07 10° NNE daylight
07 Sep - 13:57:02 10° NNW 14:00:00 29° NNE 14:02:57 10° E daylight
07 Sep - 15:33:47 10° WNW 15:36:39 27° SW 15:39:31 10° SSE daylight
